| time (UTC) | temp C | wind direction | speed KPH | gust KPH | rain 1hr cm | rain 24hr cm | rain mn cm | humidity % | barometer mb |
| 20260503051019 | 7 | 147 | 0.0 | 3.2 | 0.00 | 0.15 | 0.15 | 92 | 1022.7 |
| 20260503050514 | 7 | 124 | 0.0 | 3.2 | 0.00 | 0.15 | 0.15 | 90 | 1022.7 |
| 20260503050012 | 7 | 158 | 1.6 | 3.2 | 0.00 | 0.15 | 0.15 | 90 | 1022.5 |
| 20260503045509 | 7 | 269 | 0.0 | 3.2 | 0.00 | 0.15 | 0.15 | 90 | 1022.7 |
| 20260503045006 | 7 | 129 | 0.0 | 3.2 | 0.00 | 0.15 | 0.15 | 90 | 1022.7 |
| 20260503044503 | 7 | 214 | 0.0 | 3.2 | 0.00 | 0.15 | 0.15 | 89 | 1022.5 |
| 20260503044001 | 7 | 201 | 0.0 | 4.8 | 0.00 | 0.15 | 0.15 | 89 | 1022.9 |
| 20260503043456 | 7 | 241 | 4.8 | 8.0 | 0.00 | 0.15 | 0.15 | 90 | 1022.6 |
| 20260503042953 | 7 | 241 | 4.8 | 6.4 | 0.00 | 0.15 | 0.15 | 90 | 1022.6 |
| 20260503042450 | 7 | 208 | 0.0 | 1.6 | 0.00 | 0.15 | 0.15 | 88 | 1022.4 |
| 20260503041946 | 7 | 163 | 1.6 | 4.8 | 0.00 | 0.15 | 0.15 | 90 | 1022.4 |
| 20260503041443 | 7 | 137 | 3.2 | 4.8 | 0.00 | 0.15 | 0.15 | 90 | 1022.5 |
| 20260503040941 | 7 | 180 | 4.8 | 8.0 | 0.00 | 0.15 | 0.15 | 90 | 1022.1 |
| 20260503040438 | 8 | 147 | 0.0 | 4.8 | 0.00 | 0.15 | 0.15 | 89 | 1022.1 |
| 20260503035935 | 8 | 215 | 1.6 | 6.4 | 0.05 | 0.15 | 0.15 | 86 | 1022.1 |
| 20260503035432 | 8 | 220 | 0.0 | 4.8 | 0.05 | 0.15 | 0.15 | 88 | 1022.0 |
| 20260503034930 | 8 | 50 | 0.0 | 4.8 | 0.00 | 0.13 | 0.13 | 85 | 1022.3 |
| 20260503034427 | 7 | 254 | 4.8 | 6.4 | 0.00 | 0.13 | 0.13 | 88 | 1022.0 |
| 20260503033924 | 8 | 356 | 0.0 | 6.4 | 0.00 | 0.13 | 0.13 | 87 | 1022.0 |
| 20260503033421 | 7 | 135 | 3.2 | 4.8 | 0.00 | 0.13 | 0.13 | 88 | 1022.3 |
| 20260503032919 | 7 | 196 | 1.6 | 9.7 | 0.00 | 0.13 | 0.13 | 89 | 1022.3 |
| 20260503032418 | 7 | 287 | 4.8 | 11.3 | 0.05 | 0.13 | 0.13 | 91 | 1022.3 |
| 20260503031915 | 7 | 126 | 0.0 | 4.8 | 0.05 | 0.13 | 0.13 | 92 | 1022.0 |
| 20260503031412 | 7 | 201 | 0.0 | 3.2 | 0.13 | 0.13 | 0.13 | 90 | 1022.1 |
| 20260503030909 | 7 | 111 | 0.0 | 6.4 | 0.23 | 0.13 | 0.13 | 89 | 1022.0 |
| 20260503030405 | 8 | 69 | 3.2 | 4.8 | 0.18 | 0.10 | 0.10 | 87 | 1022.3 |
| 20260503025902 | 8 | 203 | 1.6 | 4.8 | 0.13 | 0.08 | 0.08 | 82 | 1022.5 |
| 20260503025359 | 9 | 110 | 0.0 | 6.4 | 0.00 | 0.05 | 0.05 | 79 | 1022.4 |
| 20260503024856 | 9 | 241 | 0.0 | 6.4 | 0.00 | 0.05 | 0.05 | 75 | 1022.3 |
| 20260503024353 | 10 | 235 | 3.2 | 4.8 | 0.00 | 0.05 | 0.05 | 75 | 1021.9 |
| 20260503023850 | 10 | 183 | 1.6 | 4.8 | 0.00 | 0.05 | 0.05 | 74 | 1021.8 |
| 20260503023347 | 10 | 194 | 4.8 | 9.7 | 0.00 | 0.05 | 0.05 | 72 | 1021.5 |
| 20260503022843 | 10 | 181 | 3.2 | 6.4 | 0.00 | 0.05 | 0.05 | 72 | 1021.5 |
| 20260503022338 | 10 | 297 | 1.6 | 9.7 | 0.00 | 0.05 | 0.05 | 71 | 1021.3 |
| 20260503021835 | 10 | 304 | 4.8 | 11.3 | 0.00 | 0.05 | 0.05 | 71 | 1021.2 |
| 20260503021331 | 10 | 278 | 0.0 | 8.0 | 0.00 | 0.05 | 0.05 | 71 | 1021.3 |
| 20260503020828 | 10 | 335 | 1.6 | 6.4 | 0.00 | 0.05 | 0.05 | 72 | 1021.2 |
| 20260503020327 | 10 | 290 | 4.8 | 8.0 | 0.00 | 0.05 | 0.05 | 71 | 1021.2 |
| 20260503015822 | 11 | 302 | 4.8 | 11.3 | 0.00 | 0.05 | 0.05 | 69 | 1021.2 |
| 20260503015320 | 11 | 275 | 3.2 | 9.7 | 0.00 | 0.05 | 0.05 | 68 | 1021.0 |
| 20260503014815 | 11 | 321 | 3.2 | 8.0 | 0.00 | 0.05 | 0.05 | 67 | 1021.4 |
| 20260503014313 | 12 | 300 | 6.4 | 11.3 | 0.00 | 0.05 | 0.05 | 64 | 1021.3 |
| 20260503013810 | 12 | 310 | 3.2 | 6.4 | 0.00 | 0.05 | 0.05 | 61 | 1021.0 |
| 20260503013308 | 12 | 138 | 0.0 | 3.2 | 0.00 | 0.05 | 0.05 | 65 | 1021.2 |
| 20260503012805 | 12 | 89 | 0.0 | 3.2 | 0.00 | 0.05 | 0.05 | 62 | 1021.2 |
| 20260503012305 | 12 | 88 | 3.2 | 4.8 | 0.00 | 0.05 | 0.05 | 64 | 1021.4 |
| 20260503011759 | 12 | 0 | 0.0 | 3.2 | 0.00 | 0.05 | 0.05 | 59 | 1021.5 |
| 20260503011255 | 12 | 131 | 4.8 | 9.7 | 0.00 | 0.05 | 0.05 | 61 | 1021.2 |
| 20260503010752 | 12 | 64 | 4.8 | 8.0 | 0.00 | 0.05 | 0.05 | 64 | 1021.5 |
| 20260503010249 | 11 | 99 | 3.2 | 9.7 | 0.00 | 0.05 | 0.05 | 67 | 1021.3 |
| 20260503005746 | 11 | 120 | 3.2 | 11.3 | 0.00 | 0.05 | 0.05 | 68 | 1021.5 |
| 20260503005244 | 11 | 110 | 3.2 | 8.0 | 0.00 | 0.05 | 0.05 | 71 | 1021.4 |
| 20260503004739 | 10 | 114 | 4.8 | 12.9 | 0.00 | 0.05 | 0.05 | 71 | 1021.5 |
| 20260503004238 | 10 | 49 | 11.3 | 17.7 | 0.05 | 0.05 | 0.05 | 72 | 1021.4 |
| 20260503003735 | 10 | 111 | 3.2 | 9.7 | 0.05 | 0.05 | 0.05 | 74 | 1021.4 |
| 20260503003232 | 10 | 194 | 3.2 | 14.5 | 0.05 | 0.05 | 0.05 | 74 | 1021.7 |
| 20260503002728 | 10 | 87 | 8.0 | 20.9 | 0.05 | 0.05 | 0.05 | 73 | 1021.7 |
| 20260503002225 | 10 | 113 | 3.2 | 8.0 | 0.05 | 0.05 | 0.05 | 75 | 1021.5 |
| 20260503001721 | 10 | 130 | 4.8 | 11.3 | 0.13 | 0.05 | 0.05 | 71 | 1022.1 |
| 20260503001218 | 10 | 127 | 1.6 | 9.7 | 0.13 | 0.03 | 0.03 | 70 | 1021.7 |
| 20260503000716 | 11 | 189 | 1.6 | 8.0 | 0.13 | 0.03 | 0.03 | 72 | 1021.4 |
| 20260503000213 | 13 | 118 | 3.2 | 11.3 | 0.00 | 0.00 | 0.00 | 53 | 1021.4 |
| 20260502235710 | 14 | 64 | 6.4 | 14.5 | 0.00 | 0.00 | 0.00 | 45 | 1021.3 |
| 20260502235208 | 14 | 84 | 1.6 | 11.3 | 0.00 | 0.00 | 0.00 | 43 | 1020.9 |
| 20260502234704 | 14 | 212 | 3.2 | 4.8 | 0.00 | 0.00 | 0.00 | 42 | 1020.7 |
| 20260502234201 | 14 | 140 | 3.2 | 17.7 | 0.00 | 0.00 | 0.00 | 42 | 1020.7 |
| 20260502233657 | 14 | 87 | 6.4 | 24.1 | 0.00 | 0.00 | 0.00 | 41 | 1020.8 |
| 20260502233154 | 15 | 235 | 8.0 | 14.5 | 0.00 | 0.00 | 0.00 | 40 | 1020.9 |
| 20260502232649 | 14 | 117 | 1.6 | 17.7 | 0.00 | 0.00 | 0.00 | 44 | 1020.9 |
| 20260502232147 | 13 | 236 | 4.8 | 11.3 | 0.00 | 0.00 | 0.00 | 44 | 1021.2 |
| 20260502231643 | 13 | 191 | 4.8 | 9.7 | 0.00 | 0.00 | 0.00 | 46 | 1021.2 |
| 20260502231141 | 13 | 191 | 6.4 | 24.1 | 0.00 | 0.00 | 0.00 | 47 | 1021.3 |
| 20260502230640 | 14 | 209 | 12.9 | 30.6 | 0.00 | 0.00 | 0.00 | 42 | 1021.4 |
| 20260502230138 | 15 | 102 | 8.0 | 29.0 | 0.00 | 0.00 | 0.00 | 38 | 1021.3 |
| 20260502225633 | 16 | 95 | 3.2 | 12.9 | 0.00 | 0.00 | 0.00 | 38 | 1021.3 |
| 20260502225131 | 16 | 309 | 0.0 | 9.7 | 0.00 | 0.00 | 0.00 | 37 | 1021.0 |
| 20260502224627 | 16 | 241 | 9.7 | 12.9 | 0.00 | 0.00 | 0.00 | 37 | 1020.9 |
| 20260502224123 | 16 | 273 | 6.4 | 20.9 | 0.00 | 0.00 | 0.00 | 37 | 1021.0 |
| 20260502223621 | 17 | 266 | 12.9 | 17.7 | 0.00 | 0.00 | 0.00 | 36 | 1021.2 |
| 20260502223120 | 17 | 273 | 8.0 | 17.7 | 0.00 | 0.00 | 0.00 | 34 | 1021.2 |
| 20260502222617 | 18 | 188 | 3.2 | 11.3 | 0.00 | 0.00 | 0.00 | 34 | 1020.9 |
| 20260502222113 | 17 | 282 | 9.7 | 16.1 | 0.00 | 0.00 | 0.00 | 35 | 1021.3 |
| 20260502221609 | 17 | 266 | 4.8 | 9.7 | 0.00 | 0.00 | 0.00 | 35 | 1021.4 |
| 20260502221106 | 16 | 170 | 3.2 | 9.7 | 0.00 | 0.00 | 0.00 | 37 | 1021.7 |
| 20260502220602 | 16 | 265 | 4.8 | 14.5 | 0.00 | 0.00 | 0.00 | 37 | 1021.8 |
| 20260502220058 | 16 | 272 | 6.4 | 16.1 | 0.00 | 0.00 | 0.00 | 37 | 1021.5 |
| 20260502215556 | 16 | 279 | 4.8 | 9.7 | 0.00 | 0.00 | 0.00 | 37 | 1021.7 |
| 20260502215052 | 16 | 49 | 3.2 | 12.9 | 0.00 | 0.00 | 0.00 | 36 | 1021.9 |
| 20260502214549 | 16 | 279 | 3.2 | 9.7 | 0.00 | 0.00 | 0.00 | 36 | 1021.8 |
| 20260502214047 | 16 | 294 | 4.8 | 12.9 | 0.00 | 0.00 | 0.00 | 35 | 1022.0 |
| 20260502213544 | 17 | 274 | 11.3 | 19.3 | 0.00 | 0.00 | 0.00 | 35 | 1021.9 |
| 20260502213042 | 16 | 116 | 4.8 | 11.3 | 0.00 | 0.00 | 0.00 | 36 | 1021.9 |
| 20260502212540 | 16 | 261 | 6.4 | 12.9 | 0.00 | 0.00 | 0.00 | 36 | 1022.1 |
| 20260502212038 | 16 | 245 | 4.8 | 14.5 | 0.00 | 0.00 | 0.00 | 36 | 1022.3 |
| 20260502211533 | 16 | 288 | 9.7 | 12.9 | 0.00 | 0.00 | 0.00 | 35 | 1022.0 |
| 20260502211030 | 17 | 7 | 4.8 | 11.3 | 0.00 | 0.00 | 0.00 | 36 | 1022.3 |
| 20260502210527 | 16 | 258 | 4.8 | 8.0 | 0.00 | 0.00 | 0.00 | 36 | 1022.1 |
| 20260502210024 | 17 | 263 | 6.4 | 14.5 | 0.00 | 0.00 | 0.00 | 35 | 1022.1 |
| 20260502205521 | 17 | 145 | 4.8 | 12.9 | 0.00 | 0.00 | 0.00 | 34 | 1022.3 |
| 20260502205018 | 17 | 257 | 4.8 | 11.3 | 0.00 | 0.00 | 0.00 | 34 | 1022.4 |
| 20260502204515 | 17 | 274 | 9.7 | 16.1 | 0.00 | 0.00 | 0.00 | 33 | 1022.3 |
| 20260502204013 | 18 | 130 | 4.8 | 12.9 | 0.00 | 0.00 | 0.00 | 32 | 1022.1 |
| 20260502203509 | 18 | 245 | 11.3 | 12.9 | 0.00 | 0.00 | 0.00 | 33 | 1022.1 |
| 20260502203006 | 18 | 271 | 9.7 | 19.3 | 0.00 | 0.00 | 0.00 | 33 | 1022.1 |
| 20260502202502 | 17 | 115 | 4.8 | 12.9 | 0.00 | 0.00 | 0.00 | 34 | 1022.1 |
| 20260502202001 | 17 | 254 | 8.0 | 11.3 | 0.00 | 0.00 | 0.00 | 33 | 1022.3 |
| 20260502201456 | 17 | 263 | 6.4 | 11.3 | 0.00 | 0.00 | 0.00 | 33 | 1022.1 |
| 20260502200953 | 17 | 156 | 6.4 | 20.9 | 0.00 | 0.00 | 0.00 | 32 | 1022.6 |
| 20260502200449 | 17 | 307 | 11.3 | 14.5 | 0.00 | 0.00 | 0.00 | 33 | 1022.4 |
| 20260502195947 | 17 | 273 | 11.3 | 14.5 | 0.00 | 0.00 | 0.00 | 33 | 1022.5 |
| 20260502195444 | 18 | 234 | 0.0 | 12.9 | 0.00 | 0.00 | 0.00 | 32 | 1022.4 |
| 20260502194940 | 18 | 134 | 4.8 | 9.7 | 0.00 | 0.00 | 0.00 | 32 | 1022.5 |
| 20260502194437 | 18 | 277 | 6.4 | 14.5 | 0.00 | 0.00 | 0.00 | 32 | 1022.6 |
| 20260502193933 | 17 | 171 | 6.4 | 14.5 | 0.00 | 0.00 | 0.00 | 33 | 1022.5 |
| 20260502193431 | 17 | 149 | 9.7 | 16.1 | 0.00 | 0.00 | 0.00 | 33 | 1022.5 |
| 20260502192926 | 17 | 164 | 4.8 | 20.9 | 0.00 | 0.00 | 0.00 | 32 | 1022.7 |
| 20260502192423 | 17 | 268 | 12.9 | 17.7 | 0.00 | 0.00 | 0.00 | 32 | 1022.7 |
| 20260502191920 | 18 | 234 | 11.3 | 22.5 | 0.00 | 0.00 | 0.00 | 32 | 1022.9 |
| 20260502191418 | 18 | 156 | 6.4 | 17.7 | 0.00 | 0.00 | 0.00 | 32 | 1022.7 |
| 20260502190915 | 18 | 241 | 12.9 | 20.9 | 0.00 | 0.00 | 0.00 | 31 | 1022.7 |
| 20260502190412 | 18 | 247 | 4.8 | 16.1 | 0.00 | 0.00 | 0.00 | 32 | 1022.9 |
| 20260502185908 | 18 | 253 | 9.7 | 17.7 | 0.00 | 0.00 | 0.00 | 30 | 1022.9 |
| 20260502185404 | 18 | 275 | 20.9 | 24.1 | 0.00 | 0.00 | 0.00 | 31 | 1022.9 |
| 20260502184901 | 17 | 288 | 3.2 | 22.5 | 0.00 | 0.00 | 0.00 | 31 | 1023.0 |
| 20260502184356 | 17 | 170 | 16.1 | 17.7 | 0.00 | 0.00 | 0.00 | 32 | 1023.0 |
| 20260502183853 | 17 | 132 | 6.4 | 16.1 | 0.00 | 0.00 | 0.00 | 32 | 1022.7 |
| 20260502183349 | 17 | 246 | 3.2 | 25.7 | 0.00 | 0.00 | 0.00 | 32 | 1022.7 |
| 20260502182844 | 17 | 152 | 14.5 | 14.5 | 0.00 | 0.00 | 0.00 | 32 | 1023.0 |
| 20260502182340 | 16 | 282 | 11.3 | 16.1 | 0.00 | 0.00 | 0.00 | 33 | 1023.1 |
| 20260502181837 | 16 | 6 | 4.8 | 17.7 | 0.00 | 0.00 | 0.00 | 33 | 1023.2 |
| 20260502181336 | 16 | 146 | 9.7 | 17.7 | 0.00 | 0.00 | 0.00 | 33 | 1023.1 |
| 20260502180833 | 16 | 132 | 6.4 | 16.1 | 0.00 | 0.00 | 0.00 | 34 | 1023.0 |
| 20260502180330 | 16 | 199 | 8.0 | 17.7 | 0.00 | 0.00 | 0.00 | 33 | 1023.1 |
| 20260502170249 | 15 | 248 | 0.0 | 9.7 | 0.00 | 0.00 | 0.00 | 36 | 1022.9 |
| 20260502164237 | 16 | 301 | 3.2 | 8.0 | 0.00 | 0.00 | 0.00 | 36 | 1022.9 |
| 20260502163732 | 16 | 167 | 0.0 | 9.7 | 0.00 | 0.00 | 0.00 | 36 | 1022.9 |
| 20260502163229 | 16 | 281 | 4.8 | 6.4 | 0.00 | 0.00 | 0.00 | 36 | 1023.0 |
| 20260502162726 | 16 | 264 | 3.2 | 11.3 | 0.00 | 0.00 | 0.00 | 35 | 1023.1 |
| 20260502162223 | 16 | 282 | 6.4 | 8.0 | 0.00 | 0.00 | 0.00 | 36 | 1023.0 |
| 20260502161720 | 16 | 166 | 4.8 | 17.7 | 0.00 | 0.00 | 0.00 | 36 | 1023.1 |
| 20260502161216 | 16 | 257 | 4.8 | 12.9 | 0.00 | 0.00 | 0.00 | 36 | 1022.7 |
| 20260502160715 | 16 | 284 | 8.0 | 12.9 | 0.00 | 0.00 | 0.00 | 36 | 1022.7 |
| 20260502160214 | 15 | 3 | 3.2 | 9.7 | 0.00 | 0.00 | 0.00 | 37 | 1022.9 |
| 20260502152127 | 13 | 272 | 4.8 | 11.3 | 0.00 | 0.00 | 0.00 | 41 | 1022.6 |
| 20260502151624 | 12 | 258 | 4.8 | 6.4 | 0.00 | 0.00 | 0.00 | 42 | 1022.5 |
| 20260502151121 | 12 | 268 | 4.8 | 11.3 | 0.00 | 0.00 | 0.00 | 42 | 1022.9 |
| 20260502150619 | 12 | 161 | 6.4 | 12.9 | 0.00 | 0.00 | 0.00 | 42 | 1022.7 |
| 20260502150114 | 12 | 339 | 3.2 | 11.3 | 0.00 | 0.00 | 0.00 | 42 | 1022.5 |
| 20260502130503 | 7 | 164 | 0.0 | 3.2 | 0.00 | 0.00 | 0.00 | 39 | 1021.9 |
| 20260502123446 | 7 | 147 | 1.6 | 4.8 | 0.00 | 0.00 | 0.00 | 35 | 1021.9 |
| 20260502122943 | 7 | 119 | 0.0 | 3.2 | 0.00 | 0.00 | 0.00 | 34 | 1021.9 |
| 20260502122439 | 8 | 184 | 1.6 | 3.2 | 0.00 | 0.00 | 0.00 | 33 | 1021.9 |
| 20260502121937 | 8 | 236 | 1.6 | 4.8 | 0.00 | 0.00 | 0.00 | 32 | 1021.9 |
| 20260502121434 | 8 | 232 | 0.0 | 6.4 | 0.00 | 0.00 | 0.00 | 32 | 1022.0 |
| 20260502120932 | 8 | 202 | 3.2 | 4.8 | 0.00 | 0.00 | 0.00 | 32 | 1021.8 |
| 20260502120428 | 8 | 195 | 0.0 | 3.2 | 0.00 | 0.00 | 0.00 | 32 | 1021.9 |
| 20260502115925 | 8 | 243 | 0.0 | 3.2 | 0.00 | 0.00 | 0.00 | 32 | 1021.9 |
| 20260502115422 | 9 | 54 | 1.6 | 4.8 | 0.00 | 0.00 | 0.00 | 32 | 1022.0 |
| 20260502114918 | 10 | 243 | 3.2 | 4.8 | 0.00 | 0.00 | 0.00 | 30 | 1021.9 |
| 20260502114415 | 10 | 241 | 4.8 | 4.8 | 0.00 | 0.00 | 0.00 | 29 | 1022.0 |
| 20260502113912 | 10 | 249 | 3.2 | 6.4 | 0.00 | 0.00 | 0.00 | 29 | 1021.9 |
| 20260502113410 | 10 | 55 | 0.0 | 8.0 | 0.00 | 0.00 | 0.00 | 28 | 1021.7 |
| 20260502112909 | 10 | 184 | 3.2 | 8.0 | 0.00 | 0.00 | 0.00 | 28 | 1022.0 |
| 20260502112405 | 10 | 146 | 4.8 | 6.4 | 0.00 | 0.00 | 0.00 | 28 | 1022.0 |
| 20260502111903 | 9 | 168 | 0.0 | 3.2 | 0.00 | 0.00 | 0.00 | 31 | 1022.3 |
| 20260502111400 | 8 | 190 | 0.0 | 3.2 | 0.00 | 0.00 | 0.00 | 33 | 1022.0 |
| 20260502110857 | 8 | 259 | 1.6 | 4.8 | 0.00 | 0.00 | 0.00 | 32 | 1022.0 |
| 20260502110355 | 8 | 140 | 0.0 | 4.8 | 0.00 | 0.00 | 0.00 | 33 | 1021.9 |
| 20260502105852 | 8 | 238 | 0.0 | 4.8 | 0.00 | 0.00 | 0.00 | 32 | 1022.0 |
| 20260502105349 | 7 | 208 | 3.2 | 6.4 | 0.00 | 0.00 | 0.00 | 33 | 1022.0 |
| 20260502104847 | 7 | 198 | 0.0 | 4.8 | 0.00 | 0.00 | 0.00 | 33 | 1022.3 |
| 20260502104344 | 7 | 235 | 0.0 | 6.4 | 0.00 | 0.00 | 0.00 | 33 | 1022.1 |
| 20260502103841 | 8 | 262 | 1.6 | 6.4 | 0.00 | 0.00 | 0.00 | 32 | 1022.0 |
| 20260502103339 | 8 | 145 | 0.0 | 4.8 | 0.00 | 0.00 | 0.00 | 33 | 1022.0 |
| 20260502102836 | 8 | 160 | 0.0 | 4.8 | 0.00 | 0.00 | 0.00 | 33 | 1022.0 |
| 20260502102332 | 8 | 152 | 1.6 | 4.8 | 0.00 | 0.00 | 0.00 | 32 | 1021.9 |
| 20260502101830 | 8 | 147 | 0.0 | 4.8 | 0.00 | 0.00 | 0.00 | 32 | 1021.9 |
| 20260502101328 | 9 | 203 | 1.6 | 4.8 | 0.00 | 0.00 | 0.00 | 31 | 1022.0 |
| 20260502100826 | 9 | 262 | 1.6 | 8.0 | 0.00 | 0.00 | 0.00 | 31 | 1022.0 |
| 20260502100325 | 9 | 180 | 3.2 | 4.8 | 0.00 | 0.00 | 0.00 | 31 | 1021.9 |
| 20260502091258 | 10 | 144 | 3.2 | 4.8 | 0.00 | 0.00 | 0.00 | 28 | 1022.3 |
| 20260502090756 | 11 | 162 | 1.6 | 8.0 | 0.00 | 0.00 | 0.00 | 28 | 1022.4 |
| 20260502090253 | 11 | 131 | 3.2 | 4.8 | 0.00 | 0.00 | 0.00 | 27 | 1022.5 |
| 20260502071153 | 11 | 154 | 6.4 | 8.0 | 0.00 | 0.00 | 0.00 | 26 | 1023.3 |
| 20260502070651 | 11 | 76 | 1.6 | 11.3 | 0.00 | 0.00 | 0.00 | 26 | 1023.5 |
| 20260502070149 | 12 | 118 | 3.2 | 9.7 | 0.00 | 0.00 | 0.00 | 26 | 1023.2 |
| 20260502065647 | 12 | 141 | 3.2 | 9.7 | 0.00 | 0.00 | 0.00 | 26 | 1023.3 |
| 20260502065144 | 12 | 166 | 4.8 | 11.3 | 0.00 | 0.00 | 0.00 | 25 | 1023.5 |
| 20260502064643 | 12 | 149 | 6.4 | 14.5 | 0.00 | 0.00 | 0.00 | 25 | 1023.5 |
| 20260502064140 | 12 | 166 | 6.4 | 12.9 | 0.00 | 0.00 | 0.00 | 25 | 1023.2 |
| 20260502063638 | 12 | 149 | 6.4 | 11.3 | 0.00 | 0.00 | 0.00 | 25 | 1023.2 |
| 20260502063135 | 12 | 142 | 6.4 | 14.5 | 0.00 | 0.00 | 0.00 | 25 | 1023.3 |
| 20260502062632 | 12 | 147 | 3.2 | 12.9 | 0.00 | 0.00 | 0.00 | 25 | 1023.3 |
| 20260502062130 | 12 | 160 | 6.4 | 8.0 | 0.00 | 0.00 | 0.00 | 25 | 1023.2 |
| 20260502061628 | 12 | 130 | 4.8 | 14.5 | 0.00 | 0.00 | 0.00 | 25 | 1023.5 |
| 20260502061125 | 12 | 129 | 3.2 | 8.0 | 0.00 | 0.00 | 0.00 | 25 | 1023.3 |
| 20260502060625 | 12 | 173 | 4.8 | 9.7 | 0.00 | 0.00 | 0.00 | 25 | 1023.3 |
| 20260502060122 | 12 | 119 | 3.2 | 8.0 | 0.00 | 0.00 | 0.00 | 25 | 1023.5 |
| 20260502055620 | 12 | 175 | 1.6 | 9.7 | 0.00 | 0.00 | 0.00 | 25 | 1023.6 |
| 20260502055118 | 12 | 207 | 0.0 | 12.9 | 0.00 | 0.00 | 0.00 | 24 | 1023.3 |
| 20260502054617 | 12 | 145 | 8.0 | 11.3 | 0.00 | 0.00 | 0.00 | 24 | 1023.3 |
| 20260502054113 | 12 | 180 | 3.2 | 12.9 | 0.00 | 0.00 | 0.00 | 24 | 1023.5 |
| 20260502053610 | 12 | 149 | 3.2 | 14.5 | 0.00 | 0.00 | 0.00 | 24 | 1023.6 |
| 20260502053108 | 12 | 150 | 6.4 | 11.3 | 0.00 | 0.00 | 0.00 | 24 | 1023.6 |
| 20260502052606 | 12 | 167 | 0.0 | 11.3 | 0.00 | 0.00 | 0.00 | 24 | 1023.5 |
| 20260502052104 | 12 | 133 | 4.8 | 9.7 | 0.00 | 0.00 | 0.00 | 24 | 1023.3 |
| 20260502051602 | 12 | 138 | 6.4 | 9.7 | 0.00 | 0.00 | 0.00 | 24 | 1023.6 |
| 20260502051059 | 12 | 145 | 3.2 | 4.8 | 0.00 | 0.00 | 0.00 | 24 | 1023.5 |